Location: Banios
(43.0451°N, 0.2335°E)
Time: 02:02:30
(UTC+00:00)

Courier 1B - All Passes

Search period start: 12 May 2021 00:00
Search period end: 22 May 2021 00:00
Orbit: 962 x 1209 km, 28.3° (Epoch: 11 May)

Date Brightness Start Highest point End Pass type
(mag) Time Alt. Az. Time Alt. Az. Time Alt. Az.
12 May - 03:21:57 10° SSW 03:26:58 19° SSE 03:32:03 10° ESE visible
12 May - 05:13:57 10° SW 05:20:11 27° S 05:26:27 10° ESE daylight
12 May - 07:07:37 10° WSW 07:13:30 23° SSW 07:19:18 10° SE daylight
12 May - 09:03:54 10° SW 09:06:32 12° SSW 09:09:10 10° S daylight
13 May - 02:29:13 10° S 02:33:21 15° SSE 02:37:33 10° SE visible
13 May - 04:20:26 10° SW 04:26:28 25° S 04:32:37 10° ESE daylight
13 May - 06:13:41 10° WSW 06:19:48 25° S 06:25:54 10° SE daylight
13 May - 08:08:46 10° SW 08:12:57 15° SSW 08:17:06 10° S daylight
14 May - 01:37:10 10° S 01:39:47 12° SSE 01:42:26 10° SE visible
14 May - 03:27:04 10° SW 03:32:47 23° SSE 03:38:38 10° ESE visible
14 May - 05:19:53 10° WSW 05:26:05 26° S 05:32:20 10° SE daylight
14 May - 07:14:16 10° WSW 07:19:20 19° SSW 07:24:21 10° SSE daylight
15 May - 02:33:55 10° SSW 02:39:08 20° SSE 02:44:31 10° ESE visible
15 May - 04:26:14 10° SW 04:32:22 27° S 04:38:39 10° SE daylight
15 May - 06:20:06 10° WSW 06:25:40 21° SSW 06:31:14 10° SSE daylight
16 May - 01:41:02 10° SSW 01:45:32 17° SSE 01:50:11 10° ESE visible
16 May - 03:32:42 10° SW 03:38:40 26° S 03:44:49 10° ESE visible
16 May - 05:26:08 10° WSW 05:31:59 24° S 05:37:54 10° SE daylight
16 May - 07:21:50 10° SW 07:25:05 13° SSW 07:28:20 10° S daylight
17 May - 00:48:35 10° S 00:51:59 14° SSE 00:55:29 10° SE visible
17 May - 02:39:19 10° SW 02:45:00 24° S 02:50:54 10° ESE visible
17 May - 04:32:20 10° WSW 04:38:16 25° S 04:44:22 10° SE daylight
17 May - 06:27:04 10° SW 06:31:28 16° SSW 06:35:54 10° SSE daylight
17 May - 23:57:35 10° SSE 23:58:29 10° SSE 23:59:24 10° SE visible
18 May - 01:46:06 10° SW 01:51:23 22° SSE 01:56:51 10° ESE visible
18 May - 03:38:40 10° SW 03:44:35 26° S 03:50:43 10° SE visible
18 May - 05:32:46 10° WSW 05:37:50 19° SSW 05:42:58 10° SSE daylight
19 May - 00:53:07 10° SSW 00:57:47 19° SSE 01:02:38 10° ESE visible
19 May - 02:45:08 10° SW 02:50:55 26° S 02:56:56 10° SE visible
19 May - 04:38:45 10° WSW 04:44:10 21° SSW 04:49:43 10° SSE daylight
19 May - 06:36:10 10° SW 06:37:13 10° SSW 06:38:17 10° SSW daylight
20 May - 00:00:26 10° SSW 00:04:15 15° SSE 00:08:12 10° SE visible
20 May - 01:51:43 10° SW 01:57:16 24° S 02:03:04 10° ESE visible
20 May - 03:44:55 10° WSW 03:50:30 23° S 03:56:17 10° SE visible
20 May - 05:40:16 10° SW 05:43:38 13° SSW 05:47:02 10° S daylight
20 May - 23:08:21 10° S 23:10:46 12° SSE 23:13:14 10° SE night (unlit)
21 May - 00:58:28 10° SW 01:03:40 22° S 01:09:07 10° ESE visible
21 May - 02:51:15 10° SW 02:56:51 24° S 03:02:41 10° SE visible
21 May - 04:45:43 10° SW 04:50:01 16° SSW 04:54:24 10° SSE daylight
